SCP
0 0 0 0 0 0 0 0 0 0 0 0 0 0 0 0 0 0 0 0 0 0 0 0 0 0 0 0 0 0 0 0 0 0 0 0 0 0 0 0 0 0 0
0 0 0 0 0 0 0 0 0 0 0 0 0 0 0 0 0 0 0 0 0 0 0 0 0 0 0 0 0 0 0 0 0 0 0 0 0 0 0 0 0 0 0
0 0 0 0 0 0 0 0 0 0 0 0 0 0 0 0 0 0 0 0 0 0 0 0 0 0 0 0 0 0 0 0 0 0 0 0 0 0 0 0 0 0 0
0 0 0 0 0 0 0 0 0 0 0 0 0 0 0 0 0 0 0 0 0 0 0 0 0 0 0 0 0 0 0 0 0 0 0 0 0 0 0 0 0 0 0
0 0 0 0 0 0 0 0 0 0 0 0 0 0 0 0 0 0 0 0 0 0 0 0 0 0 0 0 0 0 0 0 0 0 0 0 0 0 0 0 0 0 0
0 0 0 0 0 0 0 0 0 0 0 0 0 0 0 0 0 0 0 0 0 0 0 0 0 0 0 0 0 0 0 0 0 0 0 0 0 0 0 0 0 0 0
0 0 0 0 0 0 0 0 0 0 0 0 0 0 0 0 0 0 0 0 0 0 0 0 0 0 0 0 0 0 0 0 0 0 0 0 0 0 0 0 0 0 0
0 0 0 0 0 0 0 0 0 0 0 0 0 0 0 0 0 0 0 0 0 0 0 0 0 0 0 0 0 0 0 0 0 0 0 0 0 0 0 0 0 0 0
0 0 0 0 0 0 0 0 0 0 0 0 0 0 0 0 0 0 0 0 0 0 0 0 0 0 0 0 0 0 0 0 0 0 0 0 0 0 0 0 0 0 0
0 0 0 0 0 0 0 0 0 0 0 0 0 0 0 0 0 0 0 0 0 0 0 0 0 0 0 0 0 0 0 0 0 0 0 0 0 0 0 0 0 0 0
0 0 0 0 0 0 0 0 0 0 0 0 0 0 0 0 0 0 0 0 0 0 0 0 0 0 0 0 0 0 0 0 0 0 0 0 0 0 0 0 0 0 0
0 0 0 0 0 0 0 0 0 0 0 0 0 0 0 0 0 0 0 0 0 0 0 0 0 0 0 0 0 0 0 0 0 0 0 0 0 0 0 0 0 0 0
0 0 0 0 0 0 0 0 0 0 0 0 0 0 0 0 0 0 0 0 0 0 0 0 0 0 0 0 0 0 0 0 0 0 0 0 0 0 0 0 0 0 0
0 0 0 0 0 0 0 0 0 0 0 0 0 0 0 0 0 0 0 0 0 0 0 0 0 0 0 0 0 0 0 0 0 0 0 0 0 0 0 0 0 0 0
0 0 0 0 0 0 0 0 0 0 0 0 0 0 0 0 0 0 0 0 0 0 0 0 0 0 0 0 0 0 0 0 0 0 0 0 0 0 0 0 0 0 0
0 0 0 0 0 0 0 0 0 0 0 0 0 0 0 0 0 0 0 0 0 0 0 0 0 0 0 0 0 0 0 0 0 0 0 0 0 0 0 0 0 0 0
0 0 0 0 0 0 0 0 0 0 0 0 0 0 0 0 0 0 0 0 0 0 0 0 0 0 0 0 0 0 0 0 0 0 0 0 0 0 0 0 0 0 0
0 0 0 0 0 0 0 0 0 0 0 0 0 0 0 0 0 0 0 0 0 0 0 0 0 0 0 0 0 0 0 0 0 0 0 0 0 0 0 0 0 0 0
0 0 0 0 0 0 0 0 0 0 0 0 0 0 0 0 0 0 0 0 0 0 0 0 0 0 0 0 0 0 0 0 0 0 0 0 0 0 0 0 0 0 0
0 0 0 0 0 0 0 0 0 0 0 0 0 0 0 0 0 0 0 0 0 0 0 0 0 0 0 0 0 0 0 0 0 0 0 0 0 0 0 0 0 0 0
0 0 0 0 0 0 0 0 0 0 0 0 0 0 0 0 0 0 0 0 0 0 0 0 0 0 0 0 0 0 0 0 0 0 0 0 0 0 0 0 0 0 0
0 0 0 0 0 0 0 0 0 0 0 0 0 0 0 0 0 0 0 0 0 0 0 0 0 0 0 0 0 0 0 0 0 0 0 0 0 0 0 0 0 0 0
0 0 0 0 0 0 0 0 0 0 0 0 0 0 0 0 0 0 0 0 0 0 0 0 0 0 0 0 0 0 0 0 0 0 0 0 0 0 0 0 0 0 0
0 0 0 0 1 1 0 0 0 0 0 0 0 0 0 0 0 0 0 0 0 0 0 0 0 0 0 0 0 0 1 1 1 0 0 0 0 0 0 0 0 0 0
0 0 0 0 1 1 1 0 0 0 0 0 0 0 0 0 0 0 0 0 0 0 0 0 0 0 0 0 0 0 0 1 0 0 0 0 0 0 0 0 0 0 0
0 0 0 0 1 1 1 1 0 0 0 0 0 0 0 0 0 0 0 0 0 0 0 0 0 0 0 0 0 0 0 0 0 0 0 0 0 0 0 0 0 0 0
Wind_Speed
6 8 11 10 10 10 10 10 11 12 12 12 12 12 11 12 13 13 13 13 14 14 15 15 15 15 16 16 16 16 15 15 14 15 15 14 14 14 13 13 12 12 15
7 9 11 10 10 11 11 11 12 12 12 13 13 13 13 13 13 14 14 14 14 14 15 15 15 15 15 15 15 15 15 14 14 14 14 14 13 12 12 10 8 11 14
7 8 10 10 11 11 11 12 12 12 13 13 13 13 13 14 14 14 15 15 14 14 14 15 15 15 15 14 14 14 14 14 13 12 11 11 13 12 11 11 12 13 13
8 8 11 11 11 11 12 12 12 12 13 14 14 14 14 14 14 14 15 15 14 14 15 15 15 15 14 14 13 13 13 12 11 9 7 9 11 12 11 11 12 12 12
9 9 12 10 11 11 11 12 12 13 14 14 14 13 14 14 14 14 14 14 14 14 15 15 14 14 13 13 12 12 12 11 8 6 8 8 9 12 11 11 11 11 11
9 10 12 10 11 11 12 12 13 13 14 14 14 14 14 14 14 14 15 14 14 14 14 13 13 13 12 12 11 11 10 8 7 7 7 7 9 11 10 10 10 10 10
9 10 12 11 11 11 12 12 13 13 14 14 14 14 14 14 14 14 14 13 13 12 12 12 12 12 11 11 10 10 7 4 4 7 6 7 9 10 10 10 10 10 10
9 10 11 11 11 11 12 12 12 13 13 13 13 13 13 13 13 13 13 12 12 12 12 11 11 11 10 10 9 8 6 3 6 7 6 8 10 9 9 9 10 9 9
8 8 8 9 10 10 11 11 12 12 12 12 13 13 13 12 12 12 11 11 11 10 10 10 10 9 9 8 8 6 4 2 3 5 6 7 10 9 9 9 9 9 9
7 7 7 7 7 8 10 11 10 10 11 11 12 11 11 11 12 11 11 10 9 9 8 8 8 8 8 7 7 6 4 5 4 6 5 8 10 9 9 8 8 8 8
6 6 6 7 6 6 8 10 9 9 9 9 10 9 6 6 9 8 12 10 8 8 7 7 7 7 6 8 7 6 6 2 5 4 5 10 9 9 8 8 7 8 8
6 6 5 6 6 6 6 6 5 6 6 5 5 5 5 5 4 7 10 8 8 7 7 6 5 7 7 6 8 9 3 3 3 4 6 10 8 8 8 8 8 8 8
6 6 6 5 3 4 4 4 3 3 4 5 6 4 4 3 4 4 4 6 6 7 5 7 6 2 2 2 1 2 2 1 2 3 7 9 8 8 8 8 8 8 8
5 5 5 5 4 3 3 3 3 3 3 3 4 3 3 2 2 3 1 3 3 2 2 1 2 2 2 1 1 1 2 1 2 2 6 9 8 8 8 8 8 8 8
5 4 5 3 3 3 3 1 3 2 2 3 2 3 2 2 2 2 2 1 1 2 2 1 1 2 1 1 1 1 1 1 1 2 5 9 8 7 7 7 7 7 8
4 5 5 4 3 2 2 1 1 2 2 2 2 3 1 1 2 1 2 1 1 1 2 1 1 1 0 1 1 1 1 1 2 2 3 7 8 7 6 6 7 7 7
4 4 5 4 4 3 2 2 2 1 2 2 2 2 1 1 2 1 1 2 1 1 2 1 1 0 1 1 1 1 1 1 1 2 2 2 5 8 7 6 6 6 7
4 4 4 3 4 3 2 1 1 1 1 1 1 2 1 1 1 1 0 1 1 1 1 2 1 0 0 1 1 0 1 1 2 2 2 2 2 3 7 8 6 6 6
5 5 4 3 4 3 3 2 2 1 0 0 1 1 1 1 0 1 0 1 1 1 1 1 1 0 1 0 1 1 1 1 2 2 2 3 3 2 3 7 6 4 4
6 5 5 5 4 4 3 2 2 1 1 1 1 0 0 1 1 1 1 1 2 1 1 0 0 1 1 1 1 1 1 1 2 2 2 2 2 3 3 3 4 5 5
6 6 6 5 5 4 3 3 2 2 1 1 1 1 1 1 1 1 2 0 2 1 1 1 2 2 2 1 1 1 1 1 1 1 2 2 3 3 2 2 2 1 3
7 7 7 6 6 6 4 2 2 1 1 1 0 1 1 1 1 2 1 2 1 0 1 1 2 2 2 2 2 2 2 2 1 1 1 2 1 1 2 2 1 1 1
8 8 6 6 6 5 5 4 3 2 2 2 1 1 1 1 1 2 1 2 1 2 1 2 3 3 3 2 2 2 2 1 1 1 1 1 1 1 0 2 1 1 1
8 8 7 7 6 6 6 5 4 3 2 1 1 1 0 1 1 1 2 1 2 2 1 3 1 3 4 3 2 2 3 1 2 1 1 1 2 1 1 1 1 2 1
8 7 7 7 6 6 5 5 5 4 3 2 1 1 1 1 2 2 1 1 2 2 1 2 2 3 3 3 2 2 1 1 3 2 1 0 1 1 1 1 1 1 2
7 7 7 7 6 6 6 5 5 4 3 2 2 1 2 1 1 1 1 1 1 1 1 2 2 2 3 3 3 2 2 2 2 2 2 2 1 1 1 1 1 2 2
Wind_Direction
58 67 77 76 78 83 83 85 85 86 87 88 92 96 103 107 109 108 107 107 109 110 110 110 110 112 113 112 112 113 113 113 112 114 117 118 118 120 123 129 136 121 117
69 73 78 75 77 82 84 86 86 88 89 90 92 93 99 104 107 109 111 110 109 111 111 110 109 109 111 112 112 113 114 114 114 118 122 121 118 119 123 124 108 113 125
75 81 86 76 77 79 81 85 87 88 90 93 96 95 97 100 103 107 110 110 109 109 109 110 113 111 111 111 114 114 114 115 118 126 142 130 120 121 121 117 114 122 125
76 78 77 78 78 79 81 85 88 89 92 95 95 95 97 100 103 107 107 108 108 108 109 109 111 112 110 110 113 115 116 117 124 146 138 117 119 120 121 121 123 125 127
79 81 80 74 77 79 82 86 89 92 92 94 94 96 99 101 100 103 105 105 105 107 108 110 111 111 112 113 115 115 117 121 140 150 110 112 113 120 122 123 128 127 130
84 83 83 76 77 79 83 86 89 90 92 94 95 96 97 98 99 99 101 101 102 103 106 109 110 112 113 114 116 117 121 140 166 117 115 116 114 122 125 126 128 130 131
86 87 89 79 78 81 86 87 90 92 93 94 94 96 95 97 99 99 99 100 101 104 107 108 108 111 114 115 115 119 129 165 126 108 111 104 104 121 128 130 132 132 133
84 88 95 88 80 84 87 87 88 93 93 93 94 95 95 96 97 98 98 99 100 101 103 106 109 112 115 116 116 121 138 197 129 115 113 109 111 127 133 134 136 136 136
84 89 96 107 103 94 90 88 89 93 94 93 94 96 97 98 98 99 99 99 100 101 103 106 110 113 115 120 122 124 134 219 133 121 121 114 124 136 138 140 141 142 145
89 91 96 88 96 111 109 98 92 94 96 97 97 98 105 112 113 117 117 102 102 104 107 111 113 116 118 124 129 134 166 214 128 121 120 117 132 141 146 147 150 151 151
94 90 94 101 105 103 103 111 115 112 109 118 114 119 144 123 116 126 93 101 105 106 109 115 121 129 142 146 147 166 205 173 116 112 111 119 145 150 153 156 161 162 161
109 107 97 97 105 99 101 114 118 111 111 104 99 110 105 94 91 98 113 113 112 116 127 128 147 176 199 154 156 191 181 135 123 127 116 134 151 158 165 170 176 176 176
120 116 112 102 77 91 104 109 98 99 110 117 109 109 103 114 118 117 129 138 142 155 147 148 181 166 122 95 141 155 104 127 128 123 124 144 159 168 175 180 183 183 185
129 121 113 116 112 84 74 95 111 110 112 102 111 119 109 96 94 93 104 101 127 126 110 115 104 97 80 98 123 132 153 180 133 116 129 154 170 176 181 183 186 187 191
140 135 122 120 114 115 102 77 89 89 92 98 97 96 97 116 98 93 87 79 89 99 136 128 91 87 103 140 167 137 144 144 141 147 133 155 170 177 182 183 188 191 192
154 145 141 153 146 141 142 135 114 102 107 95 100 90 68 72 76 91 146 122 96 82 53 40 86 93 79 93 134 131 192 167 167 177 158 158 169 177 181 186 186 188 193
156 147 156 165 164 167 170 177 153 141 130 100 97 114 121 103 99 176 132 163 129 123 133 160 89 173 186 172 149 159 184 191 179 186 185 182 171 175 183 188 188 195 206
170 165 176 177 162 169 172 195 176 128 97 108 121 122 117 84 156 239 172 145 141 184 179 159 198 201 204 197 140 241 159 154 193 192 188 189 194 179 180 186 194 202 210
186 181 185 188 179 180 177 185 187 151 110 148 117 100 105 145 180 248 215 87 209 204 218 232 126 210 213 224 180 170 190 182 190 198 193 186 183 199 185 161 181 197 208
189 190 191 187 186 186 187 183 188 170 185 199 147 97 257 229 233 277 217 191 260 230 225 274 249 230 247 226 260 77 237 182 191 183 209 191 183 190 188 168 176 184 193
191 191 195 200 184 190 192 203 198 187 197 199 187 139 228 254 250 266 293 170 264 265 278 251 245 220 234 220 232 208 182 169 151 190 211 202 184 180 174 168 203 196 173
196 196 197 200 196 198 189 199 216 231 232 204 276 79 276 271 273 245 283 278 239 235 225 256 257 264 247 227 247 232 197 152 166 150 184 192 195 164 161 157 161 169 280
197 198 198 197 194 199 192 195 191 190 219 199 195 190 255 278 284 311 300 297 295 259 223 256 257 257 262 257 264 276 272 194 150 137 182 151 124 96 97 88 121 128 193
197 192 191 189 191 191 193 203 207 218 226 221 227 173 222 268 280 277 268 265 270 274 247 252 240 272 267 261 246 267 287 309 261 174 161 113 110 94 62 47 87 91 84
190 189 184 182 186 190 198 198 211 224 227 218 208 167 247 247 270 280 261 263 263 272 289 297 298 274 272 278 278 265 262 253 256 248 222 182 91 68 87 84 80 87 84
178 180 179 175 182 185 194 200 210 215 221 228 234 214 216 214 229 254 255 275 269 288 286 274 278 269 289 300 296 289 277 273 262 250 234 196 121 74 69 58 70 74 78